OBJECT C, 60014

Orbit data source: Space-Track

You're viewing an Uncataloged Satellite

Recently launched and/or uncataloged satellites may have evolving metadata. Metadata may include but not limited to: Owner, Maufacturer, Bus, Motor, and Mission.

OBJECT C, 60014 is a satellite owned by Tsinghua (CN) in SSO that was launched on Thu, 06 Jun 2024 UTC via a GUSHENXING 1 launch vehicle from the Jiuquan Satellite Launch Center, China (JSC). Unknown objects in Earth's orbit typically refer to objects detected orbiting the Earth but have not yet been identified or cataloged. These objects could be anything from previously untracked satellites, spent rocket stages, debris from satellite collisions, or even natural meteoroids temporarily captured by Earth's gravity.

Loading next visibility...
Identifier
60014, 2024-110C
Orbit
SSO
Last TLE update
8 hours ago
Origin
Manufacturer
Tsinghua
Mission
Operational spacecraft
Bus & Motor
NAXING, Unknown motor
Mass
20 kg wet, 20 kg dry
Launch date (UTC)
2024-06-06 (11 months ago)
Launch vehicle
GUSHENXING 1
Launch site
Jiuquan Satellite Launch Center, China (JSC)
Object type
Unknown
Shape & HBR
Unknown
Radar Cross Section
Large (>1 m²)

Expand to show TLE details & history

TLE from 8 hours ago
0 OBJECT C
1 60014U 24110C   25128.96236964  .00002301  00000-0  20683-3 0  9990
2 60014  97.5773 212.0801 0013233  70.8622 289.4031 14.96561893 41310
Epoch: 2025-05-08T23:05Z
Definitive object data (Epoch: 2025-05-08T23:05:48.736Z)
Latitude
-0.00007°
Longitude
-1.3983°
Altitude
577.535 km
Speed
7.574 km/s
True Right ascension
14h 08m 19s
True Declination
0° 00' 00"
Sunlit
Object was in full shadow at TLE epoch
Visualization TLE readout
Latitude
-53.74747°
Longitude
9.30993°
Altitude
603.558 km
Speed
7.554 km/s
Apparent Right ascension
03h 56m 49s
Apparent Declination
-85° 20' 22"
Sunlit
Object is in full shadow
Visualization observer readout
Local Sidereal Time
15:01:35
Azimuth
181.556° SSW
Elevation
-44.432°
Doppler factor
1
Orbital elements
Apogee altitude
583.734 km
Perigee altitude
565.333 km
Semi-major axis
6,952.67 km
Eccentricity
0.0013233
Inclination
97.5773°
RAAN
212.0801°
Arg. of periapsis
70.8622°
True anomaly
289.25999°
Mean anomaly
289.4031°
Eccentric anomaly
289.33156°
Mean motion
3.74383 °/min
BSTAR
0.00020683
Orbital period
96.16 mins
Loading maneuver chart data...
Loading SW <> Apogee altitude chart data...
Loading historical data...
Loading historical data...
Loading historical data...
Loading historical data...
Loading historical data...
Loading historical data...
Loading historical data...
Other satellites on launch #110 in the year 2024 (2024-06-06 UTC)

OBJECT C Visibility forecast

Observer location: undefined°, undefined°

Span
Click to sort rows by Start time (UTC) header in descending order
Start Az.
Max El. time (UTC)
Max El. Az.
Max El.
End time (UTC)
End Az.
4 mins2025-05-09 17:20:41.028Z61.777° ENE2025-05-09 17:22:41.028Z94.584° ESE15.423°2025-05-09 17:24:41.028Z126.416° SE
6 mins2025-05-09 18:55:41.028Z343.453° N2025-05-09 18:57:41.028Z298.83° NW30.477°2025-05-09 19:01:41.028Z221.046° SW
6 mins2025-05-10 05:43:41.028Z182.948° SSW2025-05-10 05:45:41.028Z250.627° W42.495°2025-05-10 05:49:41.028Z342.03° N
|